Location: Olsztyn
(53.7767°N, 20.4765°E)
Time: 08:04:14
(UTC+01:00)

Transit 4A - Pass Details

Date: 10 October 2022
Orbit: 871 x 972 km, 66.8° (Epoch: 06 December)

Event Time Altitude Azimuth Distance (km) Brightness Sun altitude
Rises 22:01:29 0° 227° (SW) 3,581 11.0 -34.9°
Enters shadow 22:01:39 - 227° (SW) 3,519 10.9 -34.9°
Exits shadow 22:18:22 - 42° (NE) 3,419 10.9 -36.6°
Sets 22:18:29 0° 42° (NE) 3,464 11.0 -36.6°
